Regional Weather Roundup
Issued by NWS

Home | Current Version | Previous Version | Text Only | Print | Product List | Glossary On
Versions: 1 2 3 4 5 6 7 8 9 10 11 12 13 14 15 16 17 18 19 20 21 22 23 24 25 26 27 28 29 30 31 32 33 34 35 36 37 38 39 40 41 42 43 44 45 46 47 48 49 50
000
ASUS43 KDTX 241910
RWRMI
MICHIGAN HOURLY REGIONAL WEATHER ROUNDUP
NATIONAL WEATHER SERVICE DETROIT/PONTIAC MI
200 PM EST WED DEC 24 2014

NOTE: "FAIR" INDICATES FEW OR NO CLOUDS BELOW 12,000 FEET WITH NO
SIGNIFICANT WEATHER AND/OR OBSTRUCTION TO VISIBILITY.

MIZ047>049-052>055-059>063-066>070-074>076-081>083-242000-
SOUTHEAST LOWER MICHIGAN

CITY           SKY/WX    TMP DP  RH WIND       PRES   REMARKS
ADRIAN         LGT RAIN  42  41  96 N14       29.36F FOG
ALMA           MIX PCPN  37  37 100 N13       29.43F WCI  29
ANN ARBOR      LGT RAIN  44  43  96 NW8       29.36F FOG
BAD AXE        LGT RAIN  40  40 100 NE8       29.39F WCI  35
CARO           RAIN      41  40  97 N6        29.38F
DETROIT CITY   LGT RAIN  50  47  89 SE5       29.36F FOG
DETROIT        LGT RAIN  50  50 100 SE3       29.34F VSB 1/2
FLINT          LGT RAIN  41  38  89 NW10      29.41S FOG
GROSSE ILE     DRZL/FOG  50  48  93 SE8       29.33F VSB 1/4
HILLSDALE      LGT RAIN  41  41 100 N10G16    29.34F
HOWELL         RAIN      39  39 100 N7G16     29.38F WCI  34

CITY           SKY/WX    TMP DP  RH WIND       PRES   REMARKS
JACKSON        LGT RAIN  39  38  96 N9        29.36F WCI  33
LAMBERTVILLE   CLOUDY    55  54  94 S5        29.33F FOG
LANSING        RAIN      38  37  97 N9        29.42F FOG     WCI  31
LAPEER         RAIN      41  40  98 CALM      29.38F
MASON          MIX PCPN  38  37  94 N8        29.41F WCI  32
MONROE         DRIZZLE   52  52 100 SE6       29.32F
MT. CLEMENS    LGT RAIN  45  45 100 E3        29.32F VSB 1/2
PONTIAC        LGT RAIN  42  42 100 N6        29.34F FOG
PORT HOPE        N/A     38  37  97 NE9       29.38F WCI  31
PORT HURON     FOG       45  45 100 CALM      29.37F VSB<1/4
TRI CITIES     LGT RAIN  41  38  89 N10       29.42F FOG
TROY           DRIZZLE   46  44  93 NE3       29.36F
SAGINAW HB     LGT SNOW  37  37 100 N12       29.41F WCI  30
$$
MIZ043>046-050>051-056>058-064>065-071>073-077>080-242000-
SOUTHWEST LOWER MICHIGAN

CITY           SKY/WX    TMP DP  RH WIND       PRES   REMARKS
BATTLE CREEK   CLOUDY    40  37  89 N14       29.38F WCI  32
BENTON HARBOR  LGT RAIN  39  37  92 NW7       29.45F WCI  34
BIG RAPIDS     LGT RAIN  36  36 100 N3        29.45F
COLDWATER      CLOUDY    39  38  95 N12G18    29.36F WCI  32
FREMONT        LGT RAIN  37  37  98 N7        29.45F WCI  32
HOLLAND        CLOUDY    42  37  82 N3        29.46S
GRAND RAPIDS   CLOUDY    39  36  89 N8        29.43F WCI  33
IONIA          LGT RAIN  39  38  98 N6        29.42F WCI  34
KALAMAZOO      LGT RAIN  39  37  92 N16       29.39F WCI  30
LUDINGTON      LGT RAIN  40  38  89 CALM      29.49F
MARSHALL       CLOUDY    38  37  95 N8        29.36F WCI  32
MOUNT PLEASANT LGT RAIN  37  36  98 CALM      29.43F
MUSKEGON       LGT RAIN  40  36  86 N6        29.47F
SOUTH HAVEN    LGT RAIN  41  38  89 N6        29.44F
$$
MIZ016>042-242000-
NORTHERN LOWER MICHIGAN

CITY           SKY/WX    TMP DP  RH WIND       PRES   REMARKS
ALPENA         LGT RAIN  38  38 100 NW5       29.49F FOG     WCI  34
BEAVER ISLAND  DRIZZLE   36  36  98 CALM      29.51F
BELLAIRE       MIX PCPN  38  36  93 CALM      29.48F
CADILLAC       LGT RAIN  34  33  97 CALM      29.44F
CHARLEVOIX     LGT RAIN  37  36  98 E3        29.52F
FRANKFORT      LGT RAIN  38  37  97 W5        29.49F WCI  35
GAYLORD        LGT SNOW  34  34 100 CALM      29.46F FOG
GRAYLING       LGT SNOW  33  33 100 N3        29.47F
HARBOR SPRINGS LGT RAIN  35  34  98 CALM      29.51F
HOUGHTON LAKE  LGT SNOW  33  32  96 NW3       29.46F FOG
MANISTEE       CLOUDY    37  36  93 NW3       29.48F
OSCODA         LGT RAIN  39  39 100 N12       29.42F WCI  32
PELLSTON       LGT RAIN  35  34  96 CALM      29.50F FOG
ROGERS CITY    MIX PCPN  37  37 100 CALM      29.50F
TRAVERSE CITY  LGT RAIN  38  36  92 CALM      29.46F FOG
$$
MIZ007>008-015-242000-
EASTERN UPPER MICHIGAN

CITY           SKY/WX    TMP DP  RH WIND       PRES   REMARKS
KINROSS        CLOUDY    37  36  93 CALM      29.50F VSB<1/4
MACKINAC ISLAN MIX PCPN  36  36 100 CALM      29.51S VSB 1/4
NEWBERRY       FOG       34  34 100 W7        29.51S VSB<1/4 WCI  28
S. S. MARIE    CLOUDY    36  35  96 CALM      29.50F FOG
MUNISING         N/A     36  33  89 N9        29.53F WCI  29
$$
MIZ004>006-011>014-085-242000-
CENTRAL UPPER MICHIGAN

CITY           SKY/WX    TMP DP  RH WIND       PRES   REMARKS
MANISTIQUE     CLOUDY    35  35 100 N5        29.51F FOG     WCI  31
ESCANABA       CLOUDY    36  32  87 N6        29.52F WCI  31
MENOMINEE      CLOUDY    34  34 100 N5        29.51F WCI  30
SAWYER-GWINN   CLOUDY    32  30  93 N15       29.53F WCI  22
$$
MIZ001>003-009>011-084-242000-
WESTERN UPPER MICHIGAN

CITY           SKY/WX    TMP DP  RH WIND       PRES   REMARKS
IRON MOUNTAIN  CLOUDY    34  30  85 N7        29.51F WCI  28
HOUGHTON       LGT SNOW  31  27  85 N5        29.55F FOG     WCI  26
COPPER HARBOR    N/A     33  29  85 NE9       29.57F WCI  25
IRONWOOD       CLOUDY    32  30  93 N6        29.55F WCI  26
$$

ABBREVIATIONS USED IN REMARKS
   TC - TEMPERATURE IN CELSIUS
  WCI - WIND CHILL INDEX
   HX - HEAT INDEX
  VSB - VISIBILITY




USA.gov is the U.S. government's official web portal to all federal, state and local government web resources and services.